EHI
3 3 5 7 8 7 6 4 2 3 3 3 2 1 0 0 0 0 0 0 0 0 0 0 0 0 0 0 0 0 0 0 0 0 0 0 0 0 0 0 0 0 0
2 2 2 3 3 3 2 2 1 1 1 1 1 0 0 0 0 0 0 0 0 0 0 0 0 0 0 0 0 0 0 0 0 0 0 0 0 0 0 0 0 0 0
1 1 0 0 0 0 0 0 0 0 0 0 0 0 0 0 0 0 0 0 0 0 0 0 0 0 0 0 0 0 0 0 0 0 0 0 0 0 0 0 0 0 0
0 0 0 0 0 0 0 0 0 0 0 0 0 0 0 0 0 0 0 0 0 0 0 0 0 0 0 0 0 0 0 0 0 0 0 0 0 0 0 0 0 0 0
0 0 0 0 0 0 0 0 0 0 0 0 0 0 0 0 0 0 0 0 0 0 0 0 0 0 0 0 0 0 0 0 0 0 0 0 0 0 0 0 0 0 0
0 0 0 0 0 0 0 0 0 0 0 0 0 0 0 0 0 0 0 0 0 0 0 0 0 0 0 0 0 0 0 0 0 0 0 0 0 0 0 0 0 0 0
0 0 0 0 0 0 0 0 0 0 0 0 0 0 0 0 0 0 0 0 0 0 0 0 0 0 0 0 0 0 0 0 0 0 0 0 0 0 0 0 0 0 0
0 0 0 0 0 0 0 0 0 0 0 0 0 0 0 0 0 0 0 0 0 0 0 0 0 0 0 0 0 0 0 0 0 0 0 0 0 0 0 0 0 0 0
0 0 0 0 0 0 0 0 0 0 0 0 0 0 0 0 0 0 0 0 0 0 0 0 0 0 0 0 0 0 0 0 0 0 0 0 0 0 0 0 0 0 0
0 0 0 0 0 0 0 0 0 0 0 0 0 0 0 0 0 0 0 0 0 0 0 0 0 0 0 0 0 0 0 0 0 0 0 0 0 0 0 0 0 0 0
0 0 0 0 0 0 0 0 0 0 0 0 0 0 0 0 0 0 0 0 0 0 0 0 0 0 0 0 0 0 0 0 0 0 0 0 0 0 0 0 0 0 0
0 0 0 0 0 0 0 0 0 0 0 0 0 0 0 0 0 0 0 0 0 0 0 0 0 0 0 0 0 0 0 0 0 0 0 0 0 0 0 0 0 0 0
0 0 0 0 0 0 0 0 0 0 0 0 0 0 0 0 0 0 0 0 0 0 0 0 0 0 0 0 0 0 0 0 0 0 0 0 0 0 0 0 0 0 0
0 0 0 0 0 0 0 0 0 0 0 0 0 0 0 0 0 0 0 0 0 0 0 0 0 0 0 0 0 0 0 0 0 0 0 0 0 0 0 0 0 0 0
0 0 0 0 0 0 0 0 0 0 0 0 0 0 0 0 0 0 0 0 0 0 0 0 0 0 0 0 0 0 0 0 0 0 0 0 0 0 0 0 0 0 0
0 0 0 0 0 0 0 0 0 0 0 0 0 0 0 0 0 0 0 0 0 0 0 0 0 0 0 0 0 0 0 0 0 0 0 0 0 0 0 0 0 0 0
0 0 0 0 0 0 0 0 0 0 0 0 0 0 0 0 0 0 0 0 0 0 0 0 0 0 0 0 0 0 0 0 0 0 0 0 0 0 0 0 0 0 0
0 0 0 0 0 0 0 0 0 0 0 0 0 0 0 0 0 0 0 0 0 0 0 0 0 0 0 0 0 0 0 0 0 0 0 0 0 0 0 0 0 0 0
0 0 0 0 0 0 0 0 0 0 0 0 0 0 0 0 0 0 0 0 0 0 0 0 0 0 0 0 0 0 0 0 0 0 0 0 0 0 0 0 0 0 0
0 0 0 0 0 0 0 0 0 0 0 0 0 0 0 0 0 0 0 0 0 0 0 0 0 0 0 0 0 0 0 0 0 0 0 0 0 0 0 0 0 0 0
0 0 0 0 0 0 0 0 0 0 0 0 0 0 0 0 0 0 0 0 0 0 0 0 0 0 0 0 0 0 0 0 0 0 0 0 0 0 0 0 0 0 0
0 0 0 0 0 0 0 0 0 0 0 0 0 0 0 0 0 0 0 0 0 0 0 0 0 0 0 0 0 0 0 0 0 0 0 0 0 0 0 0 0 0 0
0 0 0 0 0 0 0 0 0 0 0 0 0 0 0 0 0 0 0 0 0 0 0 0 0 0 0 0 0 0 0 0 0 0 0 0 0 0 0 0 0 0 0
0 0 0 0 0 0 0 0 0 0 0 0 0 0 0 0 0 0 0 0 0 0 0 0 0 0 0 0 0 0 0 0 0 0 0 0 0 0 0 0 0 0 0
0 0 0 0 0 0 0 0 0 0 0 0 0 0 0 0 0 0 0 0 0 0 0 0 0 0 0 0 0 0 0 0 0 0 0 0 0 0 0 0 0 0 0
0 0 0 0 0 0 0 0 0 0 0 0 0 0 0 0 0 0 0 0 0 0 0 0 0 0 0 0 0 0 0 0 0 0 0 0 0 0 0 0 0 0 0
Wind_Speed
3 2 2 2 3 4 3 3 3 3 2 4 5 5 5 5 4 4 3 4 4 3 3 3 3 4 3 3 3 3 4 5 7 7 6 6 7 7 5 5 5 5 4
2 2 3 3 4 4 4 4 3 4 3 3 3 4 4 5 5 5 5 5 5 5 5 5 4 3 3 4 4 4 4 4 6 8 7 6 7 7 6 5 4 4 4
1 2 3 3 3 4 4 4 4 4 4 3 2 3 4 5 6 6 6 7 7 7 6 6 6 5 5 5 5 6 5 4 4 6 6 5 6 7 7 5 4 4 5
1 2 2 3 3 3 3 3 3 3 4 3 3 3 4 5 6 7 8 8 8 8 7 7 7 7 7 6 5 6 6 6 4 5 5 6 6 8 7 7 6 4 4
3 3 3 3 4 4 4 4 3 3 4 3 4 4 5 5 6 8 9 9 9 9 8 8 8 7 7 7 7 8 8 7 6 6 6 7 8 9 8 7 7 6 3
5 6 6 6 6 6 6 5 5 4 4 4 4 5 6 6 7 6 6 9 8 8 7 6 7 6 4 3 3 5 7 8 9 8 7 8 9 9 8 8 8 7 4
6 6 7 8 7 8 8 7 6 6 5 5 5 6 8 7 6 6 5 7 8 7 6 5 5 7 7 6 1 5 3 3 4 7 8 9 10 10 11 10 8 7 5
6 6 7 8 8 7 7 7 6 6 5 5 5 7 8 7 6 6 4 7 7 6 6 6 5 7 8 9 6 6 5 6 6 7 7 8 8 9 10 10 8 5 1
7 7 7 8 8 8 8 8 7 6 6 6 6 7 8 7 5 4 3 6 5 6 5 6 6 6 8 10 6 6 6 5 3 2 2 6 8 8 9 9 9 8 6
7 7 7 7 8 8 8 8 7 7 6 6 6 6 7 8 5 1 5 3 4 4 4 6 9 7 7 10 6 6 7 7 7 5 2 3 5 4 4 8 9 9 7
6 7 7 8 7 7 8 7 7 8 7 7 8 6 7 7 6 2 5 1 1 1 2 3 7 6 6 6 6 6 6 8 7 6 5 6 6 7 8 8 8 8 8
7 8 8 8 8 8 8 8 8 8 9 8 7 7 6 6 5 5 5 6 5 2 2 4 6 4 3 4 4 5 9 10 5 6 6 7 7 8 8 9 8 7 5
8 9 9 10 8 8 9 9 9 9 8 8 8 7 6 6 6 5 4 3 3 1 4 6 3 1 4 3 2 5 7 5 6 6 7 7 7 7 8 7 7 6 5
10 10 9 10 9 9 7 8 8 9 8 8 7 7 7 6 7 7 7 6 6 5 4 5 5 4 3 0 2 2 3 5 6 6 7 7 7 7 7 8 8 8 6
10 10 10 10 9 8 8 5 6 6 5 6 7 7 8 7 5 4 1 2 2 3 2 4 4 3 2 1 2 3 4 5 5 6 6 7 7 7 7 7 7 8 7
10 10 9 9 9 8 8 8 5 4 5 4 3 0 5 8 11 7 4 3 2 2 4 2 2 1 2 2 3 3 3 5 6 6 6 7 8 8 8 7 8 8 8
12 11 9 9 9 9 9 9 9 6 4 3 3 2 5 12 11 8 5 4 2 3 5 2 1 1 1 1 2 3 4 4 4 6 6 7 7 7 7 7 8 8 8
13 11 10 9 9 9 9 9 9 10 10 9 7 6 8 11 11 9 7 6 6 6 5 2 2 1 0 1 2 3 3 3 4 5 5 6 7 7 7 8 7 9 9
13 11 11 10 10 10 10 10 9 11 10 11 12 11 10 9 8 7 8 9 7 6 6 4 3 2 2 1 1 2 2 2 3 4 4 5 6 6 6 7 7 6 7
13 12 11 10 11 10 10 10 10 10 11 11 12 12 13 11 10 11 11 11 9 7 6 6 5 4 3 3 2 3 3 2 2 3 3 4 5 5 6 7 7 7 7
13 13 14 12 11 11 11 11 11 11 11 11 11 11 14 13 12 12 12 12 10 9 8 7 6 6 6 4 4 4 4 3 2 3 3 3 4 5 5 6 6 6 7
12 12 14 14 12 12 12 12 12 12 13 13 11 11 13 12 11 11 11 10 10 10 9 8 8 7 6 6 5 5 5 4 3 2 2 2 3 4 4 5 6 6 7
13 13 14 14 13 12 12 13 13 13 13 13 13 12 12 12 12 11 11 10 9 9 9 8 8 8 7 6 6 6 5 4 3 2 2 3 3 3 4 4 6 6 6
15 15 14 14 14 13 14 14 14 14 14 14 13 12 12 12 12 13 12 10 10 9 9 9 9 11 11 8 7 7 6 3 3 3 4 3 3 3 3 4 5 6 6
15 15 15 14 14 14 14 15 14 14 14 14 13 13 13 12 13 12 12 11 12 11 11 11 9 10 12 13 11 7 7 8 3 2 4 5 5 4 4 5 4 5 6
15 16 15 14 14 14 14 14 14 15 14 14 13 13 13 13 13 12 12 11 11 10 11 10 12 12 12 12 12 10 12 10 8 3 5 5 5 4 4 4 5 5 6
Wind_Direction
356 19 25 33 62 69 67 74 77 84 107 134 140 146 154 160 163 172 152 146 141 117 107 89 62 28 9 349 346 336 332 323 308 318 328 330 321 315 314 291 267 246 225
12 55 67 52 56 68 68 68 73 73 72 79 110 132 147 145 145 144 132 121 112 101 86 77 66 64 44 14 353 357 353 336 316 321 325 333 335 332 323 300 278 256 253
53 85 87 82 75 73 70 66 70 74 68 63 91 122 129 126 121 115 111 106 100 92 85 78 69 59 42 36 10 7 352 347 334 321 333 349 348 351 339 324 300 278 263
118 117 111 114 116 105 89 75 80 97 102 104 110 117 119 118 117 113 109 104 99 92 83 74 62 53 39 21 19 10 357 339 344 338 356 4 6 1 353 344 333 315 290
172 176 170 157 150 142 130 121 121 124 125 125 127 126 124 120 109 112 116 111 107 101 93 83 70 60 42 16 14 9 1 351 357 360 9 12 14 3 359 342 335 327 314
200 193 184 172 170 166 156 150 148 142 133 128 128 128 115 91 69 72 106 112 108 103 97 94 99 75 79 101 60 32 16 7 4 357 12 10 7 2 350 342 345 341 338
213 200 185 182 180 174 165 159 159 156 149 137 136 124 105 96 93 86 83 113 107 97 89 68 55 56 21 23 94 181 123 81 353 335 7 1 358 359 340 341 350 343 346
215 199 184 182 177 169 167 164 162 157 150 145 140 127 117 115 117 114 115 116 107 100 86 68 54 47 28 355 3 24 30 42 20 10 8 358 2 347 333 325 327 325 12
212 197 184 179 176 173 173 169 165 159 154 153 139 134 127 127 140 158 228 135 121 105 82 58 36 52 25 345 1 23 21 22 139 163 286 296 290 293 318 335 345 338 350
211 196 184 182 183 181 173 167 163 159 157 154 135 135 131 129 139 189 284 169 129 132 125 118 74 41 20 357 9 22 16 3 350 354 319 310 321 331 317 348 347 342 343
203 187 183 184 183 175 166 163 162 162 155 144 133 126 121 122 130 82 346 322 121 152 110 96 81 47 28 7 354 24 354 312 317 338 350 359 359 357 359 4 357 344 344
200 191 185 181 181 169 167 167 166 161 156 153 147 142 132 128 110 102 63 42 355 60 53 70 83 53 25 7 18 0 313 301 332 357 359 1 358 357 356 351 348 343 337
204 196 185 181 181 174 174 172 171 177 179 168 166 164 152 140 127 125 117 89 7 19 71 67 67 234 239 179 106 306 309 347 358 355 358 356 351 352 337 337 338 334 321
208 198 188 182 181 180 184 183 184 185 187 181 179 173 162 162 161 164 164 164 177 176 146 148 190 227 241 57 225 279 4 22 351 352 351 347 343 344 347 349 344 340 339
208 199 193 190 188 183 190 186 202 192 191 193 185 178 175 173 132 73 49 132 118 91 181 181 179 170 168 84 46 29 6 10 358 358 350 346 345 346 350 352 345 339 346
208 203 198 193 188 190 186 174 73 63 100 84 47 186 136 120 131 127 102 78 67 339 271 165 127 84 40 33 11 12 21 19 358 351 354 350 347 347 348 349 349 349 351
210 204 201 197 190 196 194 191 176 143 105 125 137 107 124 140 149 157 163 169 201 252 240 167 133 89 43 21 7 2 8 26 351 347 358 354 348 345 348 348 352 351 350
208 202 203 201 198 199 198 200 192 181 178 179 179 179 159 160 167 175 176 192 201 222 231 193 183 179 222 328 348 352 349 358 359 348 356 353 347 344 347 348 353 357 344
205 202 201 202 200 202 199 202 201 194 189 183 175 170 179 174 180 189 197 228 228 212 216 215 218 218 234 245 284 298 313 337 353 327 349 349 342 340 347 343 344 354 330
203 203 198 202 203 200 200 202 201 196 195 190 186 180 172 184 197 194 208 227 237 233 230 229 228 233 235 240 250 268 280 282 294 306 343 337 340 340 341 338 343 343 345
198 190 191 206 207 202 200 201 201 199 199 197 196 186 177 195 207 210 206 212 223 231 231 235 232 227 225 223 235 241 257 275 282 304 318 329 340 342 337 339 342 346 349
197 192 192 206 207 204 202 202 202 202 202 202 201 183 175 210 219 219 218 217 218 223 227 228 234 233 233 231 227 231 241 252 259 267 288 308 318 325 332 341 348 346 349
199 197 192 200 206 199 202 206 205 205 205 205 207 201 187 210 225 229 229 228 226 227 229 227 232 237 229 220 224 236 243 237 234 247 270 279 294 312 322 334 334 333 345
201 200 199 198 202 201 202 208 209 209 209 210 210 211 207 206 219 226 230 232 230 229 231 230 232 235 231 222 218 222 224 207 206 202 222 265 273 282 300 314 318 331 330
203 200 201 201 201 203 203 206 210 212 213 214 214 216 218 218 218 222 224 229 231 232 231 229 229 229 226 220 218 210 133 125 147 239 208 233 246 260 280 295 306 313 317
210 205 202 202 203 203 204 206 209 212 213 215 217 219 221 223 224 226 226 227 229 228 229 227 226 224 217 213 209 168 143 149 157 190 251 239 235 243 263 278 291 296 306